"datetime","temp","dp","rain_mm","uv","solar","mb","wind_mph","gust_mph","windchill","rh"
"2015-04-18 00:00:00",6.9,4.0,0.0,0.0,0,1025.1,2,3,"",82
"2015-04-18 00:01:00",6.8,4.1,0.0,0.0,0,1025.1,1,1,"",83
"2015-04-18 00:02:00",6.8,4.1,0.0,0.0,0,1025.1,1,3,"",83
"2015-04-18 00:03:00",6.8,4.1,0.0,0.0,0,1025.1,1,2,"",83
"2015-04-18 00:04:00",6.8,4.1,0.0,0.0,0,1025.1,1,1,"",83
"2015-04-18 00:05:00",6.8,4.1,0.0,0.0,0,1025.1,1,2,"",83
"2015-04-18 00:06:00",6.8,4.1,0.0,0.0,0,1025.1,2,3,"",83
"2015-04-18 00:07:00",6.8,4.1,0.0,0.0,0,1025.1,2,2,"",83
"2015-04-18 00:08:00",6.8,4.1,0.0,0.0,0,1025.1,1,3,"",83
"2015-04-18 00:09:00",6.8,4.1,0.0,0.0,0,1025.1,2,3,"",83
"2015-04-18 00:10:00",6.8,4.1,0.0,0.0,0,1025.1,1,5,"",83
"2015-04-18 00:11:00",6.8,4.1,0.0,0.0,0,1025.1,2,3,"",83
"2015-04-18 00:12:00",6.8,4.1,0.0,0.0,0,1025.1,2,3,"",83
"2015-04-18 00:13:00",6.8,4.1,0.0,0.0,0,1025.1,1,2,"",83
"2015-04-18 00:14:00",6.8,4.1,0.0,0.0,0,1025.1,1,3,"",83
"2015-04-18 00:15:00",6.8,4.1,0.0,0.0,0,1025.1,2,3,"",83
"2015-04-18 00:16:00",6.8,4.1,0.0,0.0,0,1025.1,1,3,"",83
"2015-04-18 00:17:00",6.8,4.1,0.0,0.0,0,1025.1,2,2,"",83
"2015-04-18 00:18:00",6.8,4.1,0.0,0.0,0,1025.1,1,3,"",83
"2015-04-18 00:19:00",6.8,4.1,0.0,0.0,0,1025.1,2,5,"",83
"2015-04-18 00:20:00",6.8,4.1,0.0,0.0,0,1025.1,2,2,"",83
"2015-04-18 00:21:00",6.8,4.1,0.0,0.0,0,1025.1,1,3,"",83
"2015-04-18 00:22:00",6.8,4.1,0.0,0.0,0,1025.2,1,5,"",83
"2015-04-18 00:23:00",6.8,4.1,0.0,0.0,0,1025.2,2,3,"",83
"2015-04-18 00:24:00",6.8,4.1,0.0,0.0,0,1025.2,2,3,"",83
"2015-04-18 00:25:00",6.8,4.1,0.0,0.0,0,1025.3,2,2,"",83
"2015-04-18 00:26:00",6.8,4.0,0.0,0.0,0,1025.3,1,2,"",82
"2015-04-18 00:27:00",6.8,4.0,0.0,0.0,0,1025.3,1,2,"",82
"2015-04-18 00:28:00",6.8,4.0,0.0,0.0,0,1025.3,1,2,"",82
"2015-04-18 00:29:00",6.8,4.0,0.0,0.0,0,1025.3,1,2,"",82
"2015-04-18 00:30:00",6.8,4.0,0.0,0.0,0,1025.3,1,3,"",82
"2015-04-18 00:31:00",6.8,4.0,0.0,0.0,0,1025.3,2,3,"",82
"2015-04-18 00:32:00",6.8,4.0,0.0,0.0,0,1025.3,2,3,"",82
"2015-04-18 00:33:00",6.8,4.0,0.0,0.0,0,1025.3,2,2,"",82
"2015-04-18 00:34:00",6.8,3.9,0.0,0.0,0,1025.3,1,2,"",82
"2015-04-18 00:35:00",6.8,3.9,0.0,0.0,0,1025.4,1,3,"",82
"2015-04-18 00:36:00",6.7,3.9,0.0,0.0,0,1025.4,1,3,"",82
"2015-04-18 00:37:00",6.7,4.1,0.0,0.0,0,1025.4,2,3,"",83
"2015-04-18 00:38:00",6.8,4.1,0.0,0.0,0,1025.4,1,2,"",83
"2015-04-18 00:39:00",6.8,4.1,0.0,0.0,0,1025.5,1,3,"",83
"2015-04-18 00:40:00",6.8,4.1,0.0,0.0,0,1025.5,2,6,"",83
"2015-04-18 00:41:00",6.8,4.1,0.0,0.0,0,1025.5,2,3,"",83
"2015-04-18 00:42:00",6.8,4.0,0.0,0.0,0,1025.5,1,5,"",82
"2015-04-18 00:43:00",6.8,4.1,0.0,0.0,0,1025.5,2,3,"",83
"2015-04-18 00:44:00",6.8,4.1,0.0,0.0,0,1025.5,1,3,"",83
"2015-04-18 00:45:00",6.9,4.2,0.0,0.0,0,1025.5,1,3,"",83
"2015-04-18 00:46:00",6.9,4.2,0.0,0.0,0,1025.5,1,2,"",83
"2015-04-18 00:47:00",6.9,4.2,0.0,0.0,0,1025.5,1,2,"",83
"2015-04-18 00:48:00",6.9,4.2,0.0,0.0,0,1025.5,2,6,"",83
"2015-04-18 00:49:00",6.9,4.2,0.0,0.0,0,1025.5,2,3,"",83
"2015-04-18 00:50:00",6.9,4.2,0.0,0.0,0,1025.5,1,3,"",83
"2015-04-18 00:51:00",6.9,4.0,0.0,0.0,0,1025.6,1,2,"",82
"2015-04-18 00:52:00",6.9,4.1,0.0,0.0,0,1025.6,1,3,"",82
"2015-04-18 00:53:00",6.9,4.1,0.0,0.0,0,1025.6,1,2,"",82
"2015-04-18 00:54:00",6.9,4.1,0.0,0.0,0,1025.5,1,2,"",82
"2015-04-18 00:55:00",6.9,4.1,0.0,0.0,0,1025.6,1,1,"",82
"2015-04-18 00:56:00",7.0,4.1,0.0,0.0,0,1025.6,1,2,"",82
"2015-04-18 00:57:00",7.0,4.1,0.0,0.0,0,1025.6,1,5,"",82
"2015-04-18 00:58:00",6.9,4.1,0.0,0.0,0,1025.6,1,2,"",82
"2015-04-18 00:59:00",6.9,4.1,0.0,0.0,0,1025.6,1,3,"",82
"2015-04-18 01:00:00",6.9,4.1,0.0,0.0,0,1025.6,2,3,"",82
"2015-04-18 01:01:00",6.9,4.1,0.0,0.0,0,1025.7,1,2,"",82
"2015-04-18 01:02:00",6.9,3.9,0.0,0.0,0,1025.7,1,2,"",81
"2015-04-18 01:03:00",7.0,3.9,0.0,0.0,0,1025.7,0,3,"",81
"2015-04-18 01:04:00",7.0,3.9,0.0,0.0,0,1025.7,1,3,"",81
"2015-04-18 01:05:00",7.0,3.9,0.0,0.0,0,1025.7,2,3,"",81
"2015-04-18 01:06:00",6.9,4.1,0.0,0.0,0,1025.7,1,1,"",82
"2015-04-18 01:07:00",6.9,3.9,0.0,0.0,0,1025.7,1,1,"",81
"2015-04-18 01:08:00",6.9,3.9,0.0,0.0,0,1025.7,0,1,"",81
"2015-04-18 01:09:00",6.9,3.9,0.0,0.0,0,1025.7,0,2,"",81
"2015-04-18 01:10:00",6.9,3.9,0.0,0.0,0,1025.8,1,2,"",81
"2015-04-18 01:11:00",6.9,3.9,0.0,0.0,0,1025.8,2,2,"",81
"2015-04-18 01:12:00",6.9,4.0,0.0,0.0,0,1025.8,2,3,"",82
"2015-04-18 01:13:00",6.9,3.8,0.0,0.0,0,1025.7,1,2,"",81
"2015-04-18 01:14:00",6.8,4.0,0.0,0.0,0,1025.8,1,1,"",82
"2015-04-18 01:15:00",6.8,3.8,0.0,0.0,0,1025.8,0,1,"",81
"2015-04-18 01:16:00",6.8,3.8,0.0,0.0,0,1025.8,1,3,"",81
"2015-04-18 01:17:00",6.8,3.7,0.0,0.0,0,1025.8,2,3,"",81
"2015-04-18 01:18:00",6.7,3.9,0.0,0.0,0,1025.7,2,3,"",82
"2015-04-18 01:19:00",6.7,3.9,0.0,0.0,0,1025.8,1,2,"",82
"2015-04-18 01:20:00",6.7,3.8,0.0,0.0,0,1025.8,1,1,"",82
"2015-04-18 01:21:00",6.6,3.8,0.0,0.0,0,1025.8,1,3,"",82
"2015-04-18 01:22:00",6.6,3.7,0.0,0.0,0,1025.8,2,5,"",82
"2015-04-18 01:23:00",6.5,3.7,0.0,0.0,0,1025.8,2,5,"",82
"2015-04-18 01:24:00",6.5,3.6,0.0,0.0,0,1025.8,2,2,"",82
"2015-04-18 01:25:00",6.5,3.6,0.0,0.0,0,1025.8,1,2,"",82
"2015-04-18 01:26:00",6.4,3.4,0.0,0.0,0,1025.8,1,2,"",81
"2015-04-18 01:27:00",6.4,3.4,0.0,0.0,0,1025.8,1,3,"",81
"2015-04-18 01:28:00",6.4,3.4,0.0,0.0,0,1025.8,2,3,"",81
"2015-04-18 01:29:00",6.4,3.4,0.0,0.0,0,1025.8,2,1,"",81
"2015-04-18 01:30:00",6.4,3.4,0.0,0.0,0,1025.8,1,1,"",81
"2015-04-18 01:31:00",6.4,3.3,0.0,0.0,0,1025.8,0,3,"",81
"2015-04-18 01:32:00",6.3,3.3,0.0,0.0,0,1025.8,1,2,"",81
"2015-04-18 01:33:00",6.3,3.3,0.0,0.0,0,1025.8,1,3,"",81
"2015-04-18 01:34:00",6.2,3.4,0.0,0.0,0,1025.9,1,2,"",82
"2015-04-18 01:35:00",6.2,3.4,0.0,0.0,0,1025.9,1,1,"",82
"2015-04-18 01:36:00",6.2,3.4,0.0,0.0,0,1025.8,1,6,"",82
"2015-04-18 01:37:00",6.2,3.2,0.0,0.0,0,1025.8,2,3,"",81
"2015-04-18 01:38:00",6.2,3.2,0.0,0.0,0,1025.8,2,3,"",81
"2015-04-18 01:39:00",6.2,3.1,0.0,0.0,0,1025.8,2,3,"",81
"2015-04-18 01:40:00",6.1,3.1,0.0,0.0,0,1025.8,1,5,"",81
"2015-04-18 01:41:00",6.1,3.0,0.0,0.0,0,1025.8,2,3,"",81
"2015-04-18 01:42:00",6.1,3.0,0.0,0.0,0,1025.8,2,7,"",81
"2015-04-18 01:43:00",6.1,3.0,0.0,0.0,0,1025.8,1,2,"",81
"2015-04-18 01:44:00",6.1,3.0,0.0,0.0,0,1025.8,1,2,"",81
"2015-04-18 01:45:00",6.0,3.0,0.0,0.0,0,1025.8,1,6,"",81
"2015-04-18 01:46:00",6.0,3.0,0.0,0.0,0,1025.8,2,3,"",81
"2015-04-18 01:47:00",6.0,3.2,0.0,0.0,0,1025.8,1,1,"",82
"2015-04-18 01:48:00",6.0,3.2,0.0,0.0,0,1025.7,0,1,"",82
"2015-04-18 01:49:00",6.0,3.2,0.0,0.0,0,1025.7,1,2,"",82
"2015-04-18 01:50:00",6.0,3.1,0.0,0.0,0,1025.7,1,2,"",82
"2015-04-18 01:51:00",5.9,3.1,0.0,0.0,0,1025.7,1,2,"",82
"2015-04-18 01:52:00",5.9,3.1,0.0,0.0,0,1025.7,1,2,"",82
"2015-04-18 01:53:00",5.9,3.1,0.0,0.0,0,1025.7,1,2,"",82
"2015-04-18 01:54:00",5.9,3.1,0.0,0.0,0,1025.7,1,3,"",82
"2015-04-18 01:55:00",5.9,3.0,0.0,0.0,0,1025.7,1,1,"",82
"2015-04-18 01:56:00",5.8,3.0,0.0,0.0,0,1025.7,1,1,"",82
"2015-04-18 01:57:00",5.8,2.9,0.0,0.0,0,1025.7,1,1,"",82
"2015-04-18 01:58:00",5.7,2.9,0.0,0.0,0,1025.7,1,5,"",82
"2015-04-18 01:59:00",5.7,3.1,0.0,0.0,0,1025.7,2,3,"",83
"2015-04-18 02:00:00",5.7,3.1,0.0,0.0,0,1025.7,1,1,"",83
"2015-04-18 02:01:00",5.7,3.1,0.0,0.0,0,1025.7,1,1,"",83
"2015-04-18 02:02:00",5.7,3.0,0.0,0.0,0,1025.7,1,2,"",83
"2015-04-18 02:03:00",5.7,3.0,0.0,0.0,0,1025.7,1,2,"",83
"2015-04-18 02:04:00",5.6,3.0,0.0,0.0,0,1025.7,1,1,"",83
"2015-04-18 02:05:00",5.6,2.9,0.0,0.0,0,1025.7,1,2,"",83
"2015-04-18 02:06:00",5.5,2.9,0.0,0.0,0,1025.6,1,2,"",83
"2015-04-18 02:07:00",5.5,2.8,0.0,0.0,0,1025.6,1,1,"",83
"2015-04-18 02:08:00",5.5,2.8,0.0,0.0,0,1025.7,1,3,"",83
"2015-04-18 02:09:00",5.5,2.8,0.0,0.0,0,1025.6,2,5,"",83
"2015-04-18 02:10:00",5.5,2.9,0.0,0.0,0,1025.6,1,2,"",83
"2015-04-18 02:11:00",5.6,3.1,0.0,0.0,0,1025.6,1,3,"",84
"2015-04-18 02:12:00",5.6,3.1,0.0,0.0,0,1025.7,2,3,"",84
"2015-04-18 02:13:00",5.6,3.1,0.0,0.0,0,1025.7,2,2,"",84
"2015-04-18 02:14:00",5.6,3.1,0.0,0.0,0,1025.6,1,2,"",84
"2015-04-18 02:15:00",5.6,3.1,0.0,0.0,0,1025.7,1,2,"",84
"2015-04-18 02:16:00",5.7,3.2,0.0,0.0,0,1025.7,1,2,"",84
"2015-04-18 02:17:00",5.7,3.0,0.0,0.0,0,1025.7,2,8,"",83
"2015-04-18 02:18:00",5.7,3.1,0.0,0.0,0,1025.7,3,6,"",83
"2015-04-18 02:19:00",5.8,3.1,0.0,0.0,0,1025.7,2,3,"",83
"2015-04-18 02:20:00",5.8,3.1,0.0,0.0,0,1025.7,2,6,"",83
"2015-04-18 02:21:00",5.8,3.1,0.0,0.0,0,1025.7,2,2,"",83
"2015-04-18 02:22:00",5.8,3.1,0.0,0.0,0,1025.7,2,3,"",83
"2015-04-18 02:23:00",5.8,3.2,0.0,0.0,0,1025.7,1,3,"",83
"2015-04-18 02:24:00",5.8,3.2,0.0,0.0,0,1025.7,2,3,"",83
"2015-04-18 02:25:00",5.8,3.2,0.0,0.0,0,1025.7,1,2,"",83
"2015-04-18 02:26:00",5.8,3.2,0.0,0.0,0,1025.7,1,2,"",83
"2015-04-18 02:27:00",5.8,3.1,0.0,0.0,0,1025.7,1,8,"",83
"2015-04-18 02:28:00",5.8,3.1,0.0,0.0,0,1025.7,3,8,"",83
"2015-04-18 02:29:00",5.8,3.1,0.0,0.0,0,1025.7,3,6,"",83
"2015-04-18 02:30:00",5.8,3.1,0.0,0.0,0,1025.7,3,3,"",83
"2015-04-18 02:31:00",5.8,3.2,0.0,0.0,0,1025.7,2,10,"",83
"2015-04-18 02:32:00",5.8,3.2,0.0,0.0,0,1025.8,5,9,"",83
"2015-04-18 02:33:00",5.8,3.1,0.0,0.0,0,1025.8,3,5,"",83
"2015-04-18 02:34:00",5.8,3.1,0.0,0.0,0,1025.8,2,5,"",83
"2015-04-18 02:35:00",5.8,3.1,0.0,0.0,0,1025.8,2,3,"",83
"2015-04-18 02:36:00",5.8,3.1,0.0,0.0,0,1025.8,2,7,"",83
"2015-04-18 02:37:00",5.8,3.1,0.0,0.0,0,1025.8,3,3,"",83
"2015-04-18 02:38:00",5.8,2.9,0.0,0.0,0,1025.8,2,12,"",82
"2015-04-18 02:39:00",5.8,2.9,0.0,0.0,0,1025.8,3,9,"",82
"2015-04-18 02:40:00",5.8,2.9,0.0,0.0,0,1025.8,2,3,"",82
"2015-04-18 02:41:00",5.8,2.9,0.0,0.0,0,1025.8,2,7,"",82
"2015-04-18 02:42:00",5.8,2.9,0.0,0.0,0,1025.8,3,7,"",82
"2015-04-18 02:43:00",5.7,2.9,0.0,0.0,0,1025.8,3,6,"",82
"2015-04-18 02:44:00",5.7,2.9,0.0,0.0,0,1025.8,3,6,"",82
"2015-04-18 02:45:00",5.7,2.8,0.0,0.0,0,1025.7,3,8,"",82
"2015-04-18 02:46:00",5.7,2.8,0.0,0.0,0,1025.7,6,14,"",82
"2015-04-18 02:47:00",5.7,2.8,0.0,0.0,0,1025.7,3,3,"",82
"2015-04-18 02:48:00",5.7,2.8,0.0,0.0,0,1025.7,2,6,"",82
"2015-04-18 02:49:00",5.7,2.8,0.0,0.0,0,1025.8,2,12,"",82
"2015-04-18 02:50:00",5.7,2.8,0.0,0.0,0,1025.8,5,7,"",82
"2015-04-18 02:51:00",5.7,2.8,0.0,0.0,0,1025.8,2,3,"",82
"2015-04-18 02:52:00",5.6,2.6,0.0,0.0,0,1025.8,2,5,"",81
"2015-04-18 02:53:00",5.6,2.6,0.0,0.0,0,1025.7,3,7,"",81
"2015-04-18 02:54:00",5.6,2.6,0.0,0.0,0,1025.7,2,3,"",81
"2015-04-18 02:55:00",5.6,2.6,0.0,0.0,0,1025.7,1,3,"",81
"2015-04-18 02:56:00",5.6,2.6,0.0,0.0,0,1025.8,2,6,"",81
"2015-04-18 02:57:00",5.5,2.5,0.0,0.0,0,1025.7,2,3,"",81
"2015-04-18 02:58:00",5.5,2.5,0.0,0.0,0,1025.8,2,3,"",81
"2015-04-18 02:59:00",5.5,2.5,0.0,0.0,0,1025.8,1,3,"",81
"2015-04-18 03:00:00",5.5,2.5,0.0,0.0,0,1025.8,2,7,"",81
"2015-04-18 03:01:00",5.4,2.4,0.0,0.0,0,1025.7,3,5,"",81
"2015-04-18 03:02:00",5.4,2.4,0.0,0.0,0,1025.8,2,3,"",81
"2015-04-18 03:03:00",5.4,2.4,0.0,0.0,0,1025.8,1,9,"",81
"2015-04-18 03:04:00",5.4,2.4,0.0,0.0,0,1025.8,5,10,"",81
"2015-04-18 03:05:00",5.4,2.4,0.0,0.0,0,1025.8,3,3,"",81
"2015-04-18 03:06:00",5.4,2.4,0.0,0.0,0,1025.8,1,9,"",81
"2015-04-18 03:07:00",5.4,2.4,0.0,0.0,0,1025.8,3,9,"",81
"2015-04-18 03:08:00",5.4,2.4,0.0,0.0,0,1025.9,2,3,"",81
"2015-04-18 03:09:00",5.3,2.3,0.0,0.0,0,1025.8,2,7,"",81
"2015-04-18 03:10:00",5.3,2.3,0.0,0.0,0,1025.9,3,6,"",81
"2015-04-18 03:11:00",5.3,2.3,0.0,0.0,0,1025.9,2,5,"",81
"2015-04-18 03:12:00",5.3,2.3,0.0,0.0,0,1025.9,2,5,"",81
"2015-04-18 03:13:00",5.3,2.3,0.0,0.0,0,1025.9,2,5,"",81
"2015-04-18 03:14:00",5.3,2.3,0.0,0.0,0,1025.9,2,3,"",81
"2015-04-18 03:15:00",5.3,2.3,0.0,0.0,0,1026.0,2,7,"",81
"2015-04-18 03:16:00",5.3,2.3,0.0,0.0,0,1025.9,2,3,"",81
"2015-04-18 03:17:00",5.2,2.2,0.0,0.0,0,1025.9,2,2,"",81
"2015-04-18 03:18:00",5.2,2.2,0.0,0.0,0,1025.9,2,6,"",81
"2015-04-18 03:19:00",5.2,2.2,0.0,0.0,0,1025.9,3,3,"",81
"2015-04-18 03:20:00",5.2,2.3,0.0,0.0,0,1025.9,2,10,"",82
"2015-04-18 03:21:00",5.2,2.3,0.0,0.0,0,1025.9,5,5,"",82
"2015-04-18 03:22:00",5.2,2.2,0.0,0.0,0,1025.9,2,9,"",81
"2015-04-18 03:23:00",5.1,2.1,0.0,0.0,0,1025.9,2,3,"",81
"2015-04-18 03:24:00",5.1,2.1,0.0,0.0,0,1025.9,1,2,"",81
"2015-04-18 03:25:00",5.0,2.1,0.0,0.0,0,1025.9,1,3,"",82
"2015-04-18 03:26:00",5.0,2.2,0.0,0.0,0,1025.9,1,2,"",82
"2015-04-18 03:27:00",5.0,2.2,0.0,0.0,0,1025.9,2,3,"",82
"2015-04-18 03:28:00",5.0,2.2,0.0,0.0,0,1025.9,2,3,"",82
"2015-04-18 03:29:00",5.0,2.2,0.0,0.0,0,1025.9,2,3,"",82
"2015-04-18 03:30:00",5.0,2.2,0.0,0.0,0,1025.9,1,3,"",82
"2015-04-18 03:31:00",5.0,2.2,0.0,0.0,0,1025.9,1,2,"",82
"2015-04-18 03:32:00",5.0,2.1,0.0,0.0,0,1025.9,1,3,"",82
"2015-04-18 03:33:00",4.9,2.1,0.0,0.0,0,1025.9,1,3,"",82
"2015-04-18 03:34:00",4.9,2.1,0.0,0.0,0,1025.9,2,3,"",82
"2015-04-18 03:35:00",4.9,2.2,0.0,0.0,0,1025.9,1,2,"",83
"2015-04-18 03:36:00",4.9,2.2,0.0,0.0,0,1025.9,1,1,"",83
"2015-04-18 03:37:00",4.8,2.2,0.0,0.0,0,1025.9,0,3,"",83
"2015-04-18 03:38:00",4.8,2.0,0.0,0.0,0,1025.9,1,2,"",82
"2015-04-18 03:39:00",4.8,2.1,0.0,0.0,0,1025.9,1,3,"",83
"2015-04-18 03:40:00",4.7,2.1,0.0,0.0,0,1025.9,1,3,"",83
"2015-04-18 03:41:00",4.7,2.1,0.0,0.0,0,1025.9,2,3,"",83
"2015-04-18 03:42:00",4.7,2.0,0.0,0.0,0,1025.9,1,3,"",83
"2015-04-18 03:43:00",4.7,2.0,0.0,0.0,0,1025.9,2,3,"",83
"2015-04-18 03:44:00",4.7,2.0,0.0,0.0,0,1025.9,2,6,"",83
"2015-04-18 03:45:00",4.7,2.0,0.0,0.0,0,1025.9,2,2,"",83
"2015-04-18 03:46:00",4.7,2.1,0.0,0.0,0,1025.8,1,2,"",83
"2015-04-18 03:47:00",4.7,2.1,0.0,0.0,0,1025.9,1,1,"",83
"2015-04-18 03:48:00",4.7,2.1,0.0,0.0,0,1025.8,1,2,"",83
"2015-04-18 03:49:00",4.7,2.0,0.0,0.0,0,1025.8,0,2,"",83
"2015-04-18 03:50:00",4.7,2.0,0.0,0.0,0,1025.8,1,2,"",83
"2015-04-18 03:51:00",4.7,2.0,0.0,0.0,0,1025.8,1,2,"",83
"2015-04-18 03:52:00",4.6,2.2,0.0,0.0,0,1025.9,1,3,"",84
"2015-04-18 03:53:00",4.6,2.1,0.0,0.0,0,1025.8,2,3,"",84
"2015-04-18 03:54:00",4.6,2.1,0.0,0.0,0,1025.8,2,3,"",84
"2015-04-18 03:55:00",4.6,2.1,0.0,0.0,0,1025.8,2,3,"",84
"2015-04-18 03:56:00",4.6,2.1,0.0,0.0,0,1025.8,1,2,"",84
"2015-04-18 03:57:00",4.6,2.1,0.0,0.0,0,1025.8,1,2,"",84
"2015-04-18 03:58:00",4.6,2.1,0.0,0.0,0,1025.8,1,3,"",84
"2015-04-18 03:59:00",4.6,2.1,0.0,0.0,0,1025.8,2,8,"",84
"2015-04-18 04:00:00",4.6,2.1,0.0,0.0,0,1025.8,3,3,"",84
"2015-04-18 04:01:00",4.5,2.1,0.0,0.0,0,1025.8,2,5,"",84
"2015-04-18 04:02:00",4.5,2.0,0.0,0.0,0,1025.8,1,2,"",84
"2015-04-18 04:03:00",4.5,2.0,0.0,0.0,0,1025.8,0,2,"",84
"2015-04-18 04:04:00",4.4,2.0,0.0,0.0,0,1025.8,1,3,"",84
"2015-04-18 04:05:00",4.4,1.9,0.0,0.0,0,1025.8,0,1,"",84
"2015-04-18 04:06:00",4.4,1.9,0.0,0.0,0,1025.9,0,2,"",84
"2015-04-18 04:07:00",4.3,1.9,0.0,0.0,0,1025.8,0,3,"",84
"2015-04-18 04:08:00",4.3,1.9,0.0,0.0,0,1025.8,1,3,"",84
"2015-04-18 04:09:00",4.3,2.0,0.0,0.0,0,1025.9,1,2,"",85
"2015-04-18 04:10:00",4.3,2.0,0.0,0.0,0,1025.8,1,1,"",85
"2015-04-18 04:11:00",4.2,1.9,0.0,0.0,0,1025.9,0,1,"",85
"2015-04-18 04:12:00",4.2,1.9,0.0,0.0,0,1025.9,0,2,"",85
"2015-04-18 04:13:00",4.2,1.9,0.0,0.0,0,1025.8,0,1,"",85
"2015-04-18 04:14:00",4.2,1.9,0.0,0.0,0,1025.8,0,2,"",85
"2015-04-18 04:15:00",4.1,1.8,0.0,0.0,0,1025.9,1,2,"",85
"2015-04-18 04:16:00",4.1,1.8,0.0,0.0,0,1025.8,1,2,"",85
"2015-04-18 04:17:00",4.0,1.7,0.0,0.0,0,1025.8,1,1,"",85
"2015-04-18 04:18:00",4.0,1.9,0.0,0.0,0,1025.9,1,1,"",86
"2015-04-18 04:19:00",4.0,1.9,0.0,0.0,0,1025.9,0,2,"",86
"2015-04-18 04:20:00",4.0,1.9,0.0,0.0,0,1025.8,1,2,"",86
"2015-04-18 04:21:00",4.0,1.8,0.0,0.0,0,1025.9,1,2,"",86
"2015-04-18 04:22:00",3.9,1.8,0.0,0.0,0,1025.9,1,2,"",86
"2015-04-18 04:23:00",3.9,1.8,0.0,0.0,0,1025.9,1,2,"",86
"2015-04-18 04:24:00",3.9,1.8,0.0,0.0,0,1025.9,0,1,"",86
"2015-04-18 04:25:00",3.9,1.8,0.0,0.0,0,1025.9,0,1,"",86
"2015-04-18 04:26:00",3.9,1.8,0.0,0.0,0,1025.9,0,1,"",86
"2015-04-18 04:27:00",3.8,1.7,0.0,0.0,0,1025.8,0,1,"",86
"2015-04-18 04:28:00",3.8,1.7,0.0,0.0,0,1025.8,0,1,"",86
"2015-04-18 04:29:00",3.8,1.7,0.0,0.0,0,1025.8,0,1,"",86
"2015-04-18 04:30:00",3.8,1.7,0.0,0.0,0,1025.8,0,0,"",86
"2015-04-18 04:31:00",3.8,1.8,0.0,0.0,0,1025.9,0,0,"",87
"2015-04-18 04:32:00",3.8,1.8,0.0,0.0,0,1025.8,0,1,"",87
"2015-04-18 04:33:00",3.8,1.8,0.0,0.0,0,1025.8,0,1,"",87
"2015-04-18 04:34:00",3.7,1.8,0.0,0.0,0,1025.8,0,2,"",87
"2015-04-18 04:35:00",3.7,1.8,0.0,0.0,0,1025.8,1,2,"",87
"2015-04-18 04:36:00",3.8,1.8,0.0,0.0,0,1025.8,1,2,"",87
"2015-04-18 04:37:00",3.8,1.8,0.0,0.0,0,1025.9,1,1,"",87
"2015-04-18 04:38:00",3.8,1.8,0.0,0.0,0,1025.9,0,1,"",87
"2015-04-18 04:39:00",3.8,1.8,0.0,0.0,0,1025.8,1,1,"",87
"2015-04-18 04:40:00",3.7,1.8,0.0,0.0,0,1025.9,1,1,"",87
"2015-04-18 04:41:00",3.7,1.8,0.0,0.0,0,1025.9,0,1,"",87
"2015-04-18 04:42:00",3.7,1.8,0.0,0.0,0,1025.9,0,3,"",87
"2015-04-18 04:43:00",3.7,1.8,0.0,0.0,0,1025.9,1,3,"",87
"2015-04-18 04:44:00",3.7,1.9,0.0,0.0,0,1025.9,1,2,"",88
"2015-04-18 04:45:00",3.7,1.9,0.0,0.0,0,1025.9,1,1,"",88
"2015-04-18 04:46:00",3.6,1.8,0.0,0.0,0,1025.9,0,1,"",88
"2015-04-18 04:47:00",3.6,1.6,0.0,0.0,0,1025.9,0,0,"",87
"2015-04-18 04:48:00",3.5,1.6,0.0,0.0,0,1025.9,0,1,"",87
"2015-04-18 04:49:00",3.5,1.7,0.0,0.0,0,1025.9,0,0,"",88
"2015-04-18 04:50:00",3.4,1.6,0.0,0.0,0,1025.9,0,0,"",88
"2015-04-18 04:51:00",3.4,1.6,0.0,0.0,0,1025.9,0,0,"",88
"2015-04-18 04:52:00",3.4,1.6,0.0,0.0,0,1025.9,0,1,"",88
"2015-04-18 04:53:00",3.4,1.6,0.0,0.0,0,1025.9,0,0,"",88
"2015-04-18 04:54:00",3.4,1.8,0.0,0.0,0,1025.9,0,0,"",89
"2015-04-18 04:55:00",3.5,1.8,0.0,0.0,0,1025.8,0,0,"",89
"2015-04-18 04:56:00",3.5,1.9,0.0,0.0,0,1025.8,0,1,"",89
"2015-04-18 04:57:00",3.5,1.7,0.0,0.0,0,1025.9,0,1,"",88
"2015-04-18 04:58:00",3.6,1.9,0.0,0.0,0,1025.8,0,1,"",89
"2015-04-18 04:59:00",3.6,1.9,0.0,0.0,0,1025.9,0,0,"",89
"2015-04-18 05:00:00",3.6,2.0,0.0,0.0,0,1025.9,0,1,"",89
"2015-04-18 05:01:00",3.7,1.9,0.0,0.0,0,1025.9,0,1,"",88
"2015-04-18 05:02:00",3.7,1.9,0.0,0.0,0,1025.9,0,1,"",88
"2015-04-18 05:03:00",3.8,2.0,0.0,0.0,0,1025.9,0,1,"",88
"2015-04-18 05:04:00",3.8,2.0,0.0,0.0,0,1025.9,0,1,"",88
"2015-04-18 05:05:00",3.8,2.0,0.0,0.0,0,1025.9,1,1,"",88
"2015-04-18 05:06:00",3.9,2.1,0.0,0.0,0,1025.9,0,1,"",88
"2015-04-18 05:07:00",3.9,2.1,0.0,0.0,0,1025.9,0,2,"",88
"2015-04-18 05:08:00",4.0,2.2,0.0,0.0,0,1025.9,1,2,"",88
"2015-04-18 05:09:00",4.0,2.2,0.0,0.0,0,1025.9,1,3,"",88
"2015-04-18 05:10:00",4.1,2.2,0.0,0.0,0,1025.9,1,2,"",87
"2015-04-18 05:11:00",4.1,2.2,0.0,0.0,0,1025.9,1,2,"",87
"2015-04-18 05:12:00",4.1,2.3,0.0,0.0,0,1025.9,1,3,"",88
"2015-04-18 05:13:00",4.1,2.3,0.0,0.0,0,1025.9,1,2,"",88
"2015-04-18 05:14:00",4.1,2.3,0.0,0.0,0,1025.9,1,2,"",88
"2015-04-18 05:15:00",4.2,2.2,0.0,0.0,0,1025.9,2,5,"",87
"2015-04-18 05:16:00",4.2,2.2,0.0,0.0,0,1025.9,3,5,"",87
"2015-04-18 05:17:00",4.2,2.2,0.0,0.0,0,1025.9,1,1,"",87
"2015-04-18 05:18:00",4.2,2.3,0.0,0.0,0,1025.9,1,3,"",87
"2015-04-18 05:19:00",4.3,2.3,0.0,0.0,0,1025.9,2,3,"",87
"2015-04-18 05:20:00",4.3,2.3,0.0,0.0,0,1026.0,1,2,"",87
"2015-04-18 05:21:00",4.3,2.4,0.0,0.0,0,1025.9,1,3,"",87
"2015-04-18 05:22:00",4.4,2.4,0.0,0.0,0,1026.0,2,5,"",87
"2015-04-18 05:23:00",4.4,2.4,0.0,0.0,0,1026.0,1,3,"",87
"2015-04-18 05:24:00",4.4,2.4,0.0,0.0,0,1026.0,1,3,"",87
"2015-04-18 05:25:00",4.4,2.5,0.0,0.0,0,1026.0,1,3,"",87
"2015-04-18 05:26:00",4.4,2.5,0.0,0.0,0,1026.0,1,3,"",87
"2015-04-18 05:27:00",4.4,2.5,0.0,0.0,0,1026.0,2,3,"",87
"2015-04-18 05:28:00",4.5,2.5,0.0,0.0,0,1026.0,1,3,"",87
"2015-04-18 05:29:00",4.5,2.5,0.0,0.0,0,1026.0,1,1,"",87
"2015-04-18 05:30:00",4.5,2.5,0.0,0.0,0,1026.1,1,1,"",87
"2015-04-18 05:31:00",4.5,2.5,0.0,0.0,0,1026.1,0,2,"",87
"2015-04-18 05:32:00",4.5,2.5,0.0,0.0,0,1026.0,1,3,"",87
"2015-04-18 05:33:00",4.5,2.5,0.0,0.0,0,1026.0,1,2,"",87
"2015-04-18 05:34:00",4.5,2.5,0.0,0.0,0,1026.0,1,2,"",87
"2015-04-18 05:35:00",4.5,2.5,0.0,0.0,0,1026.1,1,3,"",87
"2015-04-18 05:36:00",4.5,2.6,0.0,0.0,0,1026.0,1,2,"",87
"2015-04-18 05:37:00",4.6,2.6,0.0,0.0,0,1026.0,1,2,"",87
"2015-04-18 05:38:00",4.6,2.6,0.0,0.0,0,1026.0,1,2,"",87
"2015-04-18 05:39:00",4.6,2.6,0.0,0.0,0,1026.0,1,3,"",87
"2015-04-18 05:40:00",4.6,2.5,0.0,0.0,0,1026.0,1,3,"",86
"2015-04-18 05:41:00",4.7,2.5,0.0,0.0,0,1026.0,2,3,"",86
"2015-04-18 05:42:00",4.7,2.5,0.0,0.0,0,1026.0,2,5,"",86
"2015-04-18 05:43:00",4.7,2.5,0.0,0.0,0,1026.0,2,3,"",86
"2015-04-18 05:44:00",4.7,2.5,0.0,0.0,0,1026.0,2,1,"",86
"2015-04-18 05:45:00",4.7,2.6,0.0,0.0,0,1026.0,1,2,"",86
"2015-04-18 05:46:00",4.7,2.6,0.0,0.0,0,1026.0,1,3,"",86
"2015-04-18 05:47:00",4.7,2.6,0.0,0.0,0,1026.0,1,2,"",86
"2015-04-18 05:48:00",4.7,2.6,0.0,0.0,0,1026.0,1,2,"",86
"2015-04-18 05:49:00",4.7,2.6,0.0,0.0,0,1026.0,1,3,"",86
"2015-04-18 05:50:00",4.7,2.6,0.0,0.0,0,1026.0,2,3,"",86
"2015-04-18 05:51:00",4.7,2.5,0.0,0.0,0,1026.1,1,3,"",86
"2015-04-18 05:52:00",4.7,2.5,0.0,0.0,0,1026.0,2,3,"",86
"2015-04-18 05:53:00",4.7,2.5,0.0,0.0,0,1026.0,2,3,"",86
"2015-04-18 05:54:00",4.7,2.5,0.0,0.0,0,1026.0,2,3,"",86
"2015-04-18 05:55:00",4.7,2.5,0.0,0.0,0,1026.0,1,3,"",86
"2015-04-18 05:56:00",4.6,2.5,0.0,0.0,0,1026.1,1,2,"",86
"2015-04-18 05:57:00",4.6,2.5,0.0,0.0,0,1026.0,2,5,"",86
"2015-04-18 05:58:00",4.6,2.5,0.0,0.0,0,1026.1,2,3,"",86
"2015-04-18 05:59:00",4.7,2.5,0.0,0.0,0,1026.1,1,2,"",86
"2015-04-18 06:00:00",4.7,2.7,0.0,0.0,0,1026.1,1,5,"",87
"2015-04-18 06:01:00",4.7,2.7,0.0,0.0,0,1026.1,2,2,"",87
"2015-04-18 06:02:00",4.7,2.7,0.0,0.0,0,1026.1,1,2,"",87
"2015-04-18 06:03:00",4.7,2.7,0.0,0.0,0,1026.1,1,3,"",87
"2015-04-18 06:04:00",4.7,2.7,0.0,0.0,0,1026.1,2,3,"",87
"2015-04-18 06:05:00",4.7,2.7,0.0,0.0,0,1026.1,1,2,"",87
"2015-04-18 06:06:00",4.7,2.8,0.0,0.0,0,1026.0,1,2,"",87
"2015-04-18 06:07:00",4.8,2.8,0.0,0.0,0,1026.1,1,3,"",87
"2015-04-18 06:08:00",4.8,2.8,0.0,0.0,0,1026.1,2,2,"",87
"2015-04-18 06:09:00",4.8,2.8,0.0,0.0,0,1026.1,1,2,"",87
"2015-04-18 06:10:00",4.8,2.8,0.0,0.0,5,1026.1,1,1,"",87
"2015-04-18 06:11:00",4.8,2.9,0.0,0.0,5,1026.1,1,2,"",88
"2015-04-18 06:12:00",4.9,2.9,0.0,0.0,5,1026.1,2,5,"",87
"2015-04-18 06:13:00",4.9,2.9,0.0,0.0,5,1026.1,2,3,"",87
"2015-04-18 06:14:00",4.9,2.9,0.0,0.0,5,1026.1,1,2,"",87
"2015-04-18 06:15:00",4.9,2.9,0.0,0.0,5,1026.1,1,2,"",87
"2015-04-18 06:16:00",4.8,2.9,0.0,0.0,7,1026.1,1,2,"",88
"2015-04-18 06:17:00",4.8,2.8,0.0,0.0,7,1026.2,1,3,"",87
"2015-04-18 06:18:00",4.8,2.8,0.0,0.0,7,1026.2,2,5,"",87
"2015-04-18 06:19:00",4.8,2.8,0.0,0.0,7,1026.2,2,3,"",87
"2015-04-18 06:20:00",4.8,2.8,0.0,0.0,9,1026.2,1,2,"",87
"2015-04-18 06:21:00",4.8,2.8,0.0,0.0,9,1026.3,1,2,"",87
"2015-04-18 06:22:00",4.8,2.9,0.0,0.0,9,1026.3,1,2,"",88
"2015-04-18 06:23:00",4.8,2.9,0.0,0.0,9,1026.3,1,3,"",88
"2015-04-18 06:24:00",4.8,2.9,0.0,0.0,11,1026.3,1,3,"",88
"2015-04-18 06:25:00",4.8,3.0,0.0,0.0,12,1026.3,2,3,"",88
"2015-04-18 06:26:00",4.9,3.0,0.0,0.0,12,1026.3,1,3,"",88
"2015-04-18 06:27:00",4.9,3.1,0.0,0.0,11,1026.3,2,3,"",88
"2015-04-18 06:28:00",4.9,3.1,0.0,0.0,14,1026.3,2,3,"",88
"2015-04-18 06:29:00",5.0,3.1,0.0,0.0,16,1026.3,1,3,"",88
"2015-04-18 06:30:00",5.0,3.2,0.0,0.0,14,1026.3,1,2,"",88
"2015-04-18 06:31:00",5.0,3.0,0.0,0.0,14,1026.4,1,2,"",87
"2015-04-18 06:32:00",5.0,3.2,0.0,0.0,16,1026.4,1,2,"",88
"2015-04-18 06:33:00",5.0,3.1,0.0,0.0,19,1026.4,1,2,"",88
"2015-04-18 06:34:00",5.1,3.2,0.0,0.0,18,1026.4,1,2,"",88
"2015-04-18 06:35:00",5.1,3.2,0.0,0.0,19,1026.4,1,2,"",88
"2015-04-18 06:36:00",5.1,3.2,0.0,0.0,21,1026.4,1,1,"",88
"2015-04-18 06:37:00",5.1,3.1,0.0,0.0,23,1026.4,1,1,"",87
"2015-04-18 06:38:00",5.1,3.3,0.0,0.0,21,1026.4,1,2,"",88
"2015-04-18 06:39:00",5.1,3.3,0.0,0.0,28,1026.4,1,2,"",88
"2015-04-18 06:40:00",5.1,3.3,0.0,0.0,28,1026.5,1,2,"",88
"2015-04-18 06:41:00",5.2,3.3,0.0,0.0,28,1026.5,1,2,"",88
"2015-04-18 06:42:00",5.2,3.3,0.0,0.0,32,1026.5,1,3,"",88
"2015-04-18 06:43:00",5.2,3.3,0.0,0.0,37,1026.5,1,2,"",88
"2015-04-18 06:44:00",5.2,3.4,0.0,0.0,35,1026.5,1,2,"",88
"2015-04-18 06:45:00",5.2,3.4,0.0,0.0,35,1026.5,0,2,"",88
"2015-04-18 06:46:00",5.2,3.4,0.0,0.0,35,1026.5,1,1,"",88
"2015-04-18 06:47:00",5.2,3.4,0.0,0.0,26,1026.5,1,3,"",88
"2015-04-18 06:48:00",5.2,3.4,0.0,0.0,30,1026.5,1,3,"",88
"2015-04-18 06:49:00",5.3,3.4,0.0,0.0,30,1026.5,1,5,"",88
"2015-04-18 06:50:00",5.3,3.5,0.0,0.0,32,1026.5,3,8,"",88
"2015-04-18 06:51:00",5.3,3.5,0.0,0.0,33,1026.5,2,6,"",88
"2015-04-18 06:52:00",5.3,3.5,0.0,0.0,37,1026.5,3,5,"",88
"2015-04-18 06:53:00",5.3,3.5,0.0,0.0,33,1026.5,1,2,"",88
"2015-04-18 06:54:00",5.3,3.5,0.0,0.0,33,1026.5,1,3,"",88
"2015-04-18 06:55:00",5.3,3.5,0.0,0.0,33,1026.5,2,3,"",88
"2015-04-18 06:56:00",5.3,3.5,0.0,0.0,37,1026.5,2,3,"",88
"2015-04-18 06:57:00",5.3,3.5,0.0,0.0,51,1026.5,1,2,"",88